Погода в Волжском

Россия / Астраханская область     46°58′05″N   47°32′55″E
темп.,
°C
ветер,
м/с
пор.,
м/с
влажн.,
%
обл.,
%
осадки,
мм/ч
давл.,
гПа
погр.,
м
16 мая, вс
вс1601:00+22вюв46450 0.0 101672
04:00+21вюв58440 0.0 101589
07:00+22вюв47480 0.0 1015147
10:00+29юв710295 0.0 10151278
13:00+31юв1012240 0.0 10141679
16:00+30юв910250 0.0 10131470
19:00+28юв710295 0.0 1013413
22:00+24вюв612352 0.0 1013181
17 мая, пн
пн1701:00+22в511385 0.0 1012174
04:00+21вюв611490 0.0 1012151
07:00+22вюв713440 0.0 1012289
10:00+28юв913265 0.0 10131009
13:00+30юв1113191 0.0 10121457
16:00+30юв1012203 0.0 10121476
19:00+29юв710235 0.0 1011376
22:00+24вюв46315 0.0 101172
18 мая, вт
вт1801:00+22в59355 0.0 1010120
04:00+22в7144078 0.0 1009211
07:00+24вюв816385 0.0 1010400
10:00+29юв1015244 0.0 1010940
13:00+31юв11152093 0.0 10101414
16:00+31ююв101419100 0.0 10101400
19:00+28юв71027100 0.0 1010311
22:00+24вюв5936100 0.0 1010142
19 мая, ср
ср1901:00+21ююз4545100 0.0 101191
04:00+21юв235555 0.0 101036
07:00+22з336073 0.0 1011135
10:00+23зсз335796 0.0 1012339
13:00+26з234925 0.0 1012798
16:00+28зсз43445 0.0 10121035
19:00+27зсз23480 0.0 1011462
22:00+24зсз45535 0.0 101256
20 мая, чт
чт2001:00+22с4459100 0.0 101358
04:00+22св45605 0.0 101361
07:00+23в335869 0.0 101387
10:00+27вюв3443100 0.0 1014407
13:00+31ююв562997 0.0 10131283
16:00+32ююв772435 0.0 10121702
19:00+30ююв792633 0.0 1013448
22:00+25юв594153 0.0 1014122